LAOSAT 1

导读

LAOSAT 1,即老挝一号通信卫星,是老挝首颗自主卫星,由中老合作研制,于2015年11月21日在西昌卫星发射中心搭载长征三号乙运载火箭发射入轨。该卫星基于东方红四号S平台,配备C、Ku频段转发器,覆盖老挝全境及中南半岛,提供高清电视传输、远程教育、应急通信服务,不仅圆了老挝人民的卫星梦,也实现中国向东盟整星出口零突破。

基本信息
目录编号:
41034
目录名称:
LAOSAT 1
国际标识:
2015-067A
轨道中心:
EARTH
卫星名称:
LAOSAT 1
卫星全名:
--
卫星状态:
在轨 (已飞行3862 天)
发射日期:
2015-11-20 UTC
国别 :
(LA)
星等 :
--
轨道信息
数据来源 国际轨道数据 AOE轨道数据
星历时间 2026-06-17T02:45:30+0800
16小时前
查看轨道信息
2026-06-16T23:00:00+0800
20小时前
查看轨道信息
半长轴 42165.373km 42165.345km
偏心率 0.0002157 0.0002197
轨道倾角 0.048° 0.012°
近地点辐角 235.894° 310.664°
升交点赤经 160.085° 84.520°
平近点角 278.952° 223.217°
近地点 35778.14km 35777.944km
远地点 35796.332km 35796.472km
周期 1436.130分钟 1436.128分钟
每日圈数 1.002695 1.002696
详细信息
使用方式:
暂无
2D轨道图
3D轨道图
轨道高度分析图
轨道倾角分析图
轨道综合分析图
查看轨道综合分析图